Weather History for Montreal Mirabel, QC

Change the Weather History Date:

Friday, August 30, 2013

  Actual Average Record
Temperature  
Mean Temperature 65 °F -  
Max Temperature 73 °F 72 °F 86 °F (2010)
Min Temperature 57 °F 52 °F 44 °F (1996)
Growing Degree Days 15 (Base 50)    
Moisture  
Dew Point 64 °F    
Average Humidity 93    
Maximum Humidity 100    
Minimum Humidity 83    
Precipitation  
Precipitation 0.00 in - - ()
Sea Level Pressure  
Sea Level Pressure 29.87 in    
Wind  
Wind Speed 3 mph ()    
Max Wind Speed 10 mph    
Max Gust Speed 25 mph    
Visibility 7.1 miles    
Events Rain , Thunderstorm    
Averages and records for this station are not official NWS values.
T = Trace of Precipitation, MM = Missing Value Source: Averaged Metar Reports

Daily Weather History Graph

Daily Weather History Graph

Search for Another Location

Airport:

Trip Planner

Search our weather history database for the weather conditions in past years. The results will help you decide how hot, cold, wet, or windy it might be!

Date:

Astronomy

Aug. 30, 2013 Rise Set
Actual Time 6:15 AM EDT 7:37 PM EDT
Civil Twilight 5:44 AM EDT 8:08 PM EDT
Nautical Twilight 5:06 AM EDT 8:45 PM EDT
Astronomical Twilight 4:27 AM EDT 9:24 PM EDT
Moon 12:42 AM EDT (8/30) 4:00 PM EDT (8/30)
Length of Visible Light 14h 23m
Length of Day
13h 22m
Waning Crescent, 29% of the Moon is Illuminated
Aug 30
Waning Crescent
Sep 5
New
Sep 12
First Quarter
Sep 19
Full
Sep 26
Last Quarter

Hourly Weather History & Observations

Time (EDT) Temp. Dew Point Humidity Pressure Visibility Wind Dir Wind Speed Gust Speed Precip Events Conditions
12:00 AM 60.8 °F 59.0 °F 94% 30.03 in 25.0 mi ENE 3.5 mph - N/A   Partly Cloudy
1:00 AM 62.6 °F 59.0 °F 88% 30.02 in 25.0 mi NE 2.3 mph - N/A   Scattered Clouds
2:00 AM 60.8 °F 59.0 °F 94% 29.99 in 25.0 mi NE 2.3 mph - N/A   Scattered Clouds
3:00 AM 60.8 °F 59.0 °F 94% 29.98 in 25.0 mi ENE 2.3 mph - N/A   Mostly Cloudy
4:00 AM 60.8 °F 59.0 °F 94% 29.97 in 25.0 mi ENE 4.6 mph - N/A   Scattered Clouds
5:00 AM 57.2 °F 57.2 °F 100% 29.96 in 20.0 mi ENE 2.3 mph - N/A   Partly Cloudy
6:00 AM 57.2 °F 57.2 °F 100% 29.96 in 6.0 mi Calm Calm - N/A   Overcast
7:00 AM 59.0 °F 59.0 °F 100% 29.96 in 6.0 mi Calm Calm - N/A   Overcast
7:13 AM 59.0 °F 59.0 °F 100% 29.96 in 6.0 mi SSE 2.3 mph - N/A   Overcast
8:00 AM 60.8 °F 59.0 °F 94% 29.95 in 4.0 mi Calm Calm - N/A   Overcast
9:00 AM 62.6 °F 60.8 °F 94% 29.93 in 4.0 mi Calm Calm - N/A   Overcast
10:00 AM 66.2 °F 64.4 °F 94% 29.92 in 4.0 mi West 4.6 mph - N/A   Overcast
11:00 AM 68.0 °F 64.4 °F 88% 29.90 in 4.0 mi SW 6.9 mph - N/A   Overcast
12:00 PM 69.8 °F 66.2 °F 88% 29.88 in 6.0 mi SW 6.9 mph - N/A   Overcast
12:33 PM 71.6 °F 66.2 °F 83% 29.87 in 6.0 mi SW 9.2 mph - N/A   Mostly Cloudy
1:00 PM 69.8 °F 66.2 °F 88% 29.86 in 8.0 mi West 4.6 mph - N/A   Mostly Cloudy
2:00 PM 71.6 °F 68.0 °F 88% 29.84 in 8.0 mi West 6.9 mph - N/A   Overcast
3:00 PM 71.6 °F 68.0 °F 88% 29.83 in 8.0 mi West 3.5 mph - N/A   Overcast
4:00 PM 73.4 °F 69.8 °F 88% 29.81 in 8.0 mi WSW 3.5 mph - N/A   Overcast
5:00 PM 73.4 °F 69.8 °F 88% 29.79 in 8.0 mi SW 2.3 mph - N/A   Overcast
5:11 PM 73.4 °F 69.8 °F 88% 29.79 in 8.0 mi Calm Calm - N/A Thunderstorm Thunderstorm
5:30 PM 73.4 °F 69.8 °F 88% 29.80 in 6.0 mi West 3.5 mph - N/A Rain , Thunderstorm Light Thunderstorms and Rain
6:00 PM 71.6 °F 69.8 °F 94% 29.79 in 6.0 mi West 4.6 mph - N/A Rain Light Rain Showers
7:00 PM 69.8 °F 68.0 °F 94% 29.78 in 8.0 mi Calm Calm - N/A   Overcast
8:00 PM 68.0 °F 66.2 °F 94% 29.77 in 10.0 mi Calm Calm - N/A   Overcast
8:38 PM 66.2 °F 66.2 °F 100% 29.78 in 8.0 mi WNW 5.8 mph - N/A Rain , Thunderstorm Light Thunderstorms and Rain
8:40 PM 66.2 °F 66.2 °F 100% 29.80 in 2.0 mi West 6.9 mph - N/A Rain , Thunderstorm Heavy Thunderstorms and Rain
8:49 PM 68.0 °F 66.2 °F 94% 29.79 in 6.0 mi West 10.4 mph 25.3 mph N/A Rain , Thunderstorm Light Thunderstorms and Rain
9:00 PM 68.0 °F 64.4 °F 88% 29.79 in 6.0 mi West 6.9 mph - N/A Rain , Thunderstorm Light Thunderstorms and Rain
9:18 PM 66.2 °F 64.4 °F 94% 29.78 in 8.0 mi SW 4.6 mph - N/A   Overcast
10:00 PM 66.2 °F 64.4 °F 94% 29.78 in 8.0 mi SW 3.5 mph - N/A   Overcast
10:22 PM 66.2 °F 66.2 °F 100% 29.79 in 8.0 mi West 2.3 mph - N/A Rain Light Rain Showers
11:00 PM 66.2 °F 66.2 °F 100% 29.79 in 8.0 mi West 3.5 mph - N/A Rain Light Rain Showers